Tracking 29892 objects as of 21-Nov-2024
HD Live streaming from Space Station
objects crossing your sky now

COSMOS 1275 DEB

Track COSMOS 1275 DEB now!
10-day predictions


NORAD ID: 13458
Int'l Code: 1981-053FE
Perigee: 878.1 km
Apogee: 916.6 km
Inclination: 83.1 °
Period: 102.8 minutes
Semi major axis: 7268 km
RCS: 0.1893 m2 (medium)
Launch date: June 4, 1981
Source: Commonwealth of Independent States (former USSR) (CIS)
Launch site: PLESETSK MISSILE AND SPACE COMPLEX (PKMTR)

Note: This is SATELLITE DEBRIS
Your satellite tracking list
Your tracking list is empty




NASA's NSSDC Master Catalog

Two Line Element Set (TLE):
1 13458U 81053FE  24325.16911547  .00001737  00000-0  11455-2 0  9994
2 13458  83.0926 236.7748 0026463  78.5915 281.8227 14.01033506178597
Source of the keplerian elements: AFSPC